TimeEST,TemperatureF,Dew PointF,Humidity,Sea Level PressureIn,VisibilityMPH,Wind Direction,Wind SpeedMPH,Gust SpeedMPH,PrecipitationIn,Events,Conditions,WindDirDegrees,DateUTC
12:54 AM,46.0,41.0,83,30.23,10.0,NNE,4.6,-,N/A,,Overcast,30,2012-11-20 05:54:00
1:54 AM,46.0,41.0,83,30.21,10.0,Calm,Calm,-,N/A,,Overcast,0,2012-11-20 06:54:00
2:54 AM,46.0,41.0,83,30.21,10.0,North,3.5,-,N/A,,Overcast,10,2012-11-20 07:54:00
3:54 AM,45.0,39.0,80,30.19,10.0,NE,4.6,-,N/A,,Overcast,50,2012-11-20 08:54:00
4:12 AM,42.8,37.4,81,30.18,10.0,NE,4.6,-,N/A,,Scattered Clouds,50,2012-11-20 09:12:00
4:54 AM,41.0,37.0,86,30.20,10.0,North,3.5,-,N/A,,Clear,10,2012-11-20 09:54:00
5:54 AM,39.0,35.1,86,30.20,10.0,Calm,Calm,-,N/A,,Clear,0,2012-11-20 10:54:00
6:54 AM,36.0,34.0,93,30.20,7.0,Calm,Calm,-,N/A,,Clear,0,2012-11-20 11:54:00
7:54 AM,37.9,35.1,89,30.20,10.0,Calm,Calm,-,N/A,,Clear,0,2012-11-20 12:54:00
8:54 AM,43.0,36.0,76,30.19,10.0,NNE,3.5,-,N/A,,Clear,30,2012-11-20 13:54:00
9:54 AM,46.9,35.1,63,30.20,10.0,North,3.5,-,N/A,,Clear,350,2012-11-20 14:54:00
10:54 AM,48.9,34.0,56,30.17,10.0,North,4.6,-,N/A,,Clear,10,2012-11-20 15:54:00
11:54 AM,50.0,32.0,50,30.14,10.0,North,4.6,-,N/A,,Clear,350,2012-11-20 16:54:00
12:54 PM,51.1,28.9,43,30.13,10.0,North,4.6,-,N/A,,Clear,10,2012-11-20 17:54:00
1:54 PM,52.0,30.0,43,30.12,10.0,North,5.8,-,N/A,,Clear,10,2012-11-20 18:54:00
2:54 PM,51.1,28.9,43,30.11,10.0,North,4.6,-,N/A,,Clear,10,2012-11-20 19:54:00
3:54 PM,48.9,30.9,50,30.12,10.0,Calm,Calm,-,N/A,,Clear,0,2012-11-20 20:54:00
4:54 PM,46.9,30.0,52,30.12,10.0,Calm,Calm,-,N/A,,Clear,0,2012-11-20 21:54:00
5:54 PM,44.1,30.9,60,30.13,8.0,Calm,Calm,-,N/A,,Clear,0,2012-11-20 22:54:00
6:54 PM,44.1,30.9,60,30.14,10.0,Calm,Calm,-,N/A,,Clear,0,2012-11-20 23:54:00
7:54 PM,42.1,33.1,70,30.14,10.0,Calm,Calm,-,N/A,,Clear,0,2012-11-21 00:54:00
8:54 PM,42.1,34.0,73,30.14,10.0,Calm,Calm,-,N/A,,Clear,0,2012-11-21 01:54:00
9:54 PM,39.9,34.0,79,30.14,10.0,North,3.5,-,N/A,,Clear,350,2012-11-21 02:54:00
10:54 PM,39.0,34.0,82,30.15,10.0,Calm,Calm,-,N/A,,Clear,0,2012-11-21 03:54:00
11:54 PM,37.9,33.1,83,30.14,10.0,Calm,Calm,-,N/A,,Clear,0,2012-11-21 04:54:00